{"data":{"norad_id":58435,"epoch":"2026-05-25T05:08:25.977984Z","epoch_age_seconds":46657,"freshness":"FRESH","line1":"1 58435U 23182A   26145.21418956  .00009294  19095-5  32977-4 0  9990","line2":"2 58435  96.6797 249.6395 0006242 203.2809 156.8184 15.90131292144800","mean_motion":15.90131292,"eccentricity":0.0006242,"inclination_deg":96.6797,"raan_deg":249.6395,"arg_perigee_deg":203.2809,"mean_anomaly_deg":156.8184,"bstar":3.2977e-5,"rev_number":14480,"period_min":90.558559990907,"perigee_km":297.74544574106,"apogee_km":306.0848228255,"semimajor_km":6680.0521342833,"source":"CELESTRAK","updated_at":"2026-05-25T13:38:00.733706Z"}}